User: anonymous   Login
Location: Paderno d�Adda
(45.6667°N, 9.4333°E)
Time: 21:43:37
(UTC+00:00)
Language:

ATLAS 3B R/B - Orbit

View from above orbital plane
View from above orbital plane
View from above satellite
View from above satellite

Ground track
Ground track

The orbit data is extracted from the following two-line orbital elements,

1 28538U 05004B   21111.81880788 0.00000020  00000-0  33403-4 0    01
2 28538  63.8280 356.1605 0122816  16.7873 343.2126 13.43143280    03
Epoch (UTC): 21 April 2021 19:39:05
Eccentricity: 0.0122816
inclination: 63.8280°
perigee height: 1006 km
apogee height: 1189 km
right ascension of ascending node: 356.1605°
argument of perigee: 16.7873°
revolutions per day: 13.43143280
mean anomaly at epoch: 343.2126°
orbit number at epoch: 0

The dashed part of the orbit path shows where the satellite is in the earth's shadow,  

DLR